STARLINK-35434, 66246

Orbit data source: Space-Track

STARLINK-35434, 66246 is a payload satellite owned by SpaceX/Seattle (US) in LEO that was launched on Wed, 29 Oct 2025 UTC via an FALCON 9 launch vehicle from the Air Force Eastern Test Range (AFETR). Payload-class satellites include a variety of spacecraft equipped with specific instruments for various scientific and technological missions. These include communications satellites like Starlink; space stations such as the ISS; scientific satellites like the Hubble; Earth observation satellites from companies like Planet Labs, Umbra, and HawkEye 360; GPS; miniature CubeSats for education and research; and military/defense satellites.

Loading next visibility...
Identifier
66246, 2025-245N
Orbit
LEO
Country
Flag of USUS
Related business
Manufacturer
SpaceX/Seattle
Mission
Operational Commercial Communications
Bus & Motor
STARLINK V2MO, Unknown motor
Mass
575 kg wet, ~530 kg dry
Launch date (UTC)
2025-10-29 (8 months ago)
Launch vehicle
FALCON 9
Launch site
Air Force Eastern Test Range (AFETR)
Object type
Payload
Rocket body
Debris
Shape & HBR
Box + 2 Pan, 17.7 m
Radar Cross Section
36.964 m², Large (>1 m²)

Expand to show TLE details & history
Last TLE update: 14 hours ago

TLE from 14 hours ago
0 STARLINK-35434
1 66246U 25245N   26171.30900470  .00007620  00000-0  25702-3 0  9996
2 66246  53.1596 166.8343 0000987 100.4949 259.6163 15.31706941 36768
Epoch: 2026-06-20T07:24Z
TLE epoch observation values (Epoch: 2026-06-20T07:24:58.006Z)
Latitude
-0.00005°
Longitude
147.06709°
Altitude
471.741 km
Speed
7.631 km/s
True Right ascension
11h 07m 20s
True Declination
0° 00' 00"
Sunlit
Object was in daylight at epoch
Visualization orbit readout
Latitude
Unknown
Longitude
Unknown
Altitude
Unknown
Speed
Unknown
Apparent Right ascension
Unknown
Apparent Declination
Unknown
Sunlit
N/A
Visualization observer readout
Local Sidereal Time
08:33:40
Azimuth
Unknown
Elevation
Unknown
Doppler factor
Unknown
Orbital elements
Apogee altitude
471.652 km
Perigee altitude
470.3 km
Semi-major axis
6,849.113 km
Eccentricity
0.0001
Inclination
53.1596°
RAAN
166.8343°
Arg. of periapsis
100.4949°
True anomaly
259.60518°
Mean anomaly
259.6163°
Eccentric anomaly
259.61074°
Mean motion
3.82906 °/min
Orbital period
94.02 mins
BSTAR
0.00025702
Loading maneuver chart data...
Computing Atmospheric mass density...
Loading historical data...
Loading historical data...
Loading historical data...
Loading historical data...
Loading historical data...
Loading historical data...
Loading historical data...

Documentation

Showing up to 5 results
|